Location: ActonStarParty
(42.4766°N, 71.4538°W)
Time: 17:32:27
(UTC-05:00)

ISS - All Passes

Search period start: 24 November 2014 00:00
Search period end: 04 December 2014 00:00
Orbit: 407 x 417 km, 51.6° (Epoch: 24 November)

Date Brightness Start Highest point End Pass type
(mag) Time Alt. Az. Time Alt. Az. Time Alt. Az.
24 Nov - 01:13:11 10° W 01:16:14 35° NNW 01:19:18 10° NE night (unlit)
24 Nov - 02:51:21 10° NW 02:53:36 17° N 02:55:50 10° NE night (unlit)
24 Nov - 04:28:26 10° NW 04:31:06 22° NNE 04:33:46 10° ENE visible
24 Nov - 06:04:48 10° NW 06:08:06 90° SSW 06:11:25 10° SE visible
24 Nov - 07:43:18 10° WSW 07:44:17 11° SW 07:45:15 10° SSW daylight
24 Nov - 22:47:32 10° S 22:50:00 20° SE 22:52:28 10° E night (unlit)
25 Nov - 00:23:11 10° WSW 00:26:24 53° NNW 00:29:38 10° NE night (unlit)
25 Nov - 02:01:11 10° WNW 02:03:35 19° N 02:06:00 10° NE night (unlit)
25 Nov - 03:38:42 10° NW 03:41:07 19° N 03:43:33 10° ENE visible
25 Nov - 05:15:03 10° NW 05:18:18 54° NNE 05:21:33 10° ESE visible
25 Nov - 06:52:15 10° W 06:54:42 19° SW 06:57:09 10° S daylight
25 Nov - 21:59:17 10° SSE 22:00:19 11° SE 22:01:22 10° ESE night (unlit)
25 Nov - 23:33:11 10° SW 23:36:29 88° NNW 23:39:47 10° NE night (unlit)
26 Nov - 01:10:49 10° WNW 01:13:28 22° NNW 01:16:07 10° NE night (unlit)
26 Nov - 02:48:43 10° NW 02:50:58 17° N 02:53:13 10° NE night (unlit)
26 Nov - 04:25:13 10° NW 04:28:18 35° NNE 04:31:22 10° E visible
26 Nov - 06:01:53 10° WNW 06:04:55 34° SW 06:07:56 10° SSE visible
26 Nov - 22:43:17 10° SW 22:46:28 51° SE 22:49:41 10° ENE night (unlit)
27 Nov - 00:20:20 10° W 00:23:14 28° NNW 00:26:09 10° NE night (unlit)
27 Nov - 01:58:27 10° NW 02:00:39 16° N 02:02:50 10° NE night (unlit)
27 Nov - 03:35:15 10° NW 03:38:05 26° NNE 03:40:54 10° ENE visible
27 Nov - 05:11:39 10° WNW 05:14:55 62° SW 05:18:10 10° SE visible
27 Nov - 21:53:31 10° SSW 21:56:23 28° SE 21:59:16 10° ENE night (unlit)
27 Nov - 23:29:47 10° W 23:32:55 40° NNW 23:36:03 10° NE night (unlit)
28 Nov - 01:07:53 10° NW 01:10:11 17° N 01:12:28 10° NE night (unlit)
28 Nov - 02:45:06 10° NW 02:47:40 21° NNE 02:50:14 10° ENE night (unlit)
28 Nov - 04:21:24 10° NW 04:24:42 75° NNE 04:27:59 10° ESE visible
28 Nov - 05:59:11 10° W 06:00:55 14° SW 06:02:39 10° SSW visible
28 Nov - 21:04:07 10° S 21:06:14 16° SE 21:08:20 10° E night (unlit)
28 Nov - 22:39:14 10° WSW 22:42:30 64° NNW 22:45:47 10° NE night (unlit)
29 Nov - 00:17:05 10° WNW 00:19:35 20° NNW 00:22:05 10° NE night (unlit)
29 Nov - 01:54:44 10° NW 01:57:04 18° N 01:59:25 10° NE night (unlit)
29 Nov - 03:31:05 10° NW 03:34:17 45° NNE 03:37:27 10° ESE visible
29 Nov - 05:08:00 10° W 05:10:43 24° SW 05:13:26 10° S visible
29 Nov - 21:48:44 10° SW 21:52:00 74° SE 21:55:18 10° ENE night (unlit)
29 Nov - 23:26:07 10° WNW 23:28:52 24° NNW 23:31:38 10° NE night (unlit)
30 Nov - 01:04:05 10° NW 01:06:18 17° N 01:08:31 10° NE night (unlit)
30 Nov - 02:40:40 10° NW 02:43:39 30° NNE 02:46:37 10° E night (unlit)
30 Nov - 04:17:10 10° WNW 04:20:19 43° SW 04:23:27 10° SSE visible
30 Nov - 20:58:21 10° SSW 21:01:26 39° SE 21:04:32 10° ENE night (unlit)
30 Nov - 22:35:03 10° W 22:38:04 32° NNW 22:41:05 10° NE night (unlit)
01 Dec - 00:13:09 10° NW 00:15:23 17° N 00:17:36 10° NE night (unlit)
01 Dec - 01:50:05 10° NW 01:52:48 23° NNE 01:55:31 10° ENE night (unlit)
01 Dec - 03:26:24 10° WNW 03:29:42 80° SW 03:32:59 10° SE visible
01 Dec - 20:08:11 10° S 20:10:47 22° SE 20:13:24 10° E night (unlit)
01 Dec - 21:43:58 10° WSW 21:47:10 48° NNW 21:50:23 10° NE night (unlit)
01 Dec - 23:21:57 10° NW 23:24:19 18° N 23:26:41 10° NE night (unlit)
02 Dec - 00:59:19 10° NW 01:01:47 19° NNE 01:04:14 10° ENE night (unlit)
02 Dec - 02:35:36 10° NW 02:38:51 59° NNE 02:42:06 10° ESE night (unlit)
02 Dec - 04:12:51 10° W 04:15:08 18° SW 04:17:25 10° S visible
02 Dec - 19:18:40 10° SSE 19:20:04 12° SE 19:21:28 10° ESE night (unlit)
02 Dec - 20:52:54 10° WSW 20:56:11 82° NNW 20:59:29 10° NE night (unlit)
02 Dec - 22:30:31 10° WNW 22:33:08 21° NNW 22:35:45 10° NE night (unlit)
03 Dec - 00:08:18 10° NW 00:10:34 17° N 00:12:50 10° NE night (unlit)
03 Dec - 01:44:42 10° NW 01:47:48 37° NNE 01:50:54 10° E night (unlit)
03 Dec - 03:21:22 10° WNW 03:24:19 31° SW 03:27:16 10° SSE night (unlit)
03 Dec - 20:01:55 10° SW 20:05:07 54° SE 20:08:21 10° ENE night (unlit)
03 Dec - 21:38:58 10° W 21:41:51 27° NNW 21:44:44 10° NE night (unlit)
03 Dec - 23:17:00 10° NW 23:19:11 16° N 23:21:23 10° NE night (unlit)
